,,PA_Meas_PMT16A,,PR_Meas_QMR101_102,,RH_Meas_QMH101,,SR_Meas_QMS101,,TA_Meas_QMH101,,GenWind,,GenWind,
time,status,PA,status,PR,status,RH,status,SR,status,TA,status,DirAvg,status,SpdAvg,
2010-02-21, 00:00:04,VALID,920.024,VALID,0,VALID,97.5492,VALID,0,VALID,20.3464,VALID,179,VALID,0.973828,
2010-02-21, 00:01:04,VALID,920.04,VALID,0,VALID,97.5416,VALID,0,VALID,20.3464,VALID,179,VALID,0.79375,
2010-02-21, 00:02:04,VALID,920.034,VALID,0,VALID,97.5645,VALID,0,VALID,20.3659,VALID,175,VALID,1.07461,
2010-02-21, 00:03:04,VALID,920.044,VALID,0,VALID,97.5569,VALID,0,VALID,20.3659,VALID,173,VALID,0.698828,
2010-02-21, 00:04:04,VALID,920.075,VALID,0,VALID,97.5645,VALID,0,VALID,20.3854,VALID,173,VALID,0.710547,
2010-02-21, 00:05:04,VALID,920.09,VALID,0,VALID,97.5645,VALID,0,VALID,20.3854,VALID,173,VALID,0.773438,
2010-02-21, 00:06:04,VALID,920.107,VALID,0,VALID,97.5569,VALID,0,VALID,20.3854,VALID,173,VALID,0.572656,
2010-02-21, 00:07:04,VALID,920.104,VALID,0,VALID,97.5569,VALID,0,VALID,20.4049,VALID,173,VALID,0.388672,
2010-02-21, 00:08:04,VALID,920.11,VALID,0,VALID,97.5721,VALID,0,VALID,20.4049,VALID,173,VALID,0.324219,
2010-02-21, 00:09:04,VALID,920.119,VALID,0,VALID,97.5569,VALID,0,VALID,20.4049,VALID,173,VALID,0.771484,
2010-02-21, 00:10:04,VALID,920.099,VALID,0,VALID,97.5645,VALID,0,VALID,20.4049,VALID,173,VALID,0.422266,
2010-02-21, 00:11:04,VALID,920.123,VALID,0,VALID,97.5645,VALID,0,VALID,20.4033,VALID,172,VALID,0.394531,
2010-02-21, 00:12:04,VALID,920.116,VALID,0,VALID,97.5569,VALID,0,VALID,20.4049,VALID,172,VALID,0.497656,
2010-02-21, 00:13:04,VALID,920.132,VALID,0,VALID,97.5569,VALID,0,VALID,20.4049,VALID,172,VALID,0.7,
2010-02-21, 00:14:04,VALID,920.138,VALID,0,VALID,97.5721,VALID,0,VALID,20.4049,VALID,172,VALID,0.620703,
2010-02-21, 00:15:04,VALID,920.112,VALID,0,VALID,97.5569,VALID,0,VALID,20.3854,VALID,172,VALID,0.570313,
2010-02-21, 00:16:04,VALID,920.134,VALID,0,VALID,97.5797,VALID,0,VALID,20.4049,VALID,172,VALID,0.45,
2010-02-21, 00:17:04,VALID,920.101,VALID,0,VALID,97.5492,VALID,0,VALID,20.4049,VALID,172,VALID,0.707422,
2010-02-21, 00:18:04,VALID,920.088,VALID,0,VALID,97.5645,VALID,0,VALID,20.4049,VALID,172,VALID,0.532031,
2010-02-21, 00:19:04,VALID,920.085,VALID,0,VALID,97.5797,VALID,0,VALID,20.4244,VALID,172,VALID,0.327734,
2010-02-21, 00:20:04,VALID,920.092,VALID,0,VALID,97.5797,VALID,0.107441,VALID,20.4439,VALID,172,VALID,0.489453,
2010-02-21, 00:21:04,VALID,920.054,VALID,0,VALID,97.5721,VALID,0.107441,VALID,20.4439,VALID,145,VALID,0.806641,
2010-02-21, 00:22:04,VALID,920.058,VALID,0,VALID,97.5721,VALID,0,VALID,20.4228,VALID,33,VALID,0.782812,
2010-02-21, 00:23:04,VALID,920.021,VALID,0,VALID,97.5721,VALID,0,VALID,20.4049,VALID,2,VALID,1.14766,
2010-02-21, 00:24:04,VALID,920.011,VALID,0,VALID,97.5569,VALID,0,VALID,20.4049,VALID,2,VALID,0.730469,
2010-02-21, 00:25:04,VALID,919.998,VALID,0,VALID,97.5797,VALID,0,VALID,20.3659,VALID,2,VALID,0.800781,
2010-02-21, 00:26:04,VALID,919.962,VALID,0,VALID,97.5721,VALID,0,VALID,20.3643,VALID,2,VALID,0.686719,
2010-02-21, 00:27:04,VALID,919.962,VALID,0,VALID,97.5797,VALID,0,VALID,20.3643,VALID,2,VALID,0.557031,
2010-02-21, 00:28:04,VALID,919.944,VALID,0,VALID,97.5797,VALID,0,VALID,20.3659,VALID,2,VALID,0.596094,
2010-02-21, 00:29:04,VALID,919.929,VALID,0,VALID,97.5645,VALID,0,VALID,20.3464,VALID,2,VALID,0.292578,
2010-02-21, 00:30:04,VALID,919.9,VALID,0,VALID,97.5721,VALID,0,VALID,20.3659,VALID,1,VALID,0,
2010-02-21, 00:31:04,VALID,919.913,VALID,0,VALID,97.6026,VALID,0,VALID,20.3659,VALID,1,VALID,0,
2010-02-21, 00:32:04,VALID,919.906,VALID,0,VALID,97.5645,VALID,0,VALID,20.3659,VALID,2,VALID,0.173047,
2010-02-21, 00:33:04,VALID,919.908,VALID,0,VALID,97.5873,VALID,0,VALID,20.3854,VALID,1,VALID,0,
2010-02-21, 00:34:04,VALID,919.94,VALID,0,VALID,97.5721,VALID,0,VALID,20.3659,VALID,1,VALID,0,
2010-02-21, 00:35:04,VALID,919.939,VALID,0,VALID,97.5873,VALID,0.107441,VALID,20.3854,VALID,2,VALID,0.210938,
2010-02-21, 00:36:04,VALID,919.915,VALID,0,VALID,97.5797,VALID,0,VALID,20.3448,VALID,2,VALID,0.362109,
2010-02-21, 00:37:04,VALID,919.914,VALID,0,VALID,97.5873,VALID,0.107441,VALID,20.3659,VALID,2,VALID,0.533203,
2010-02-21, 00:38:04,VALID,919.869,VALID,0,VALID,97.5797,VALID,0,VALID,20.3464,VALID,2,VALID,0.504687,
2010-02-21, 00:39:04,VALID,919.882,VALID,0,VALID,97.595,VALID,0.107441,VALID,20.3448,VALID,2,VALID,0.524609,
2010-02-21, 00:40:04,VALID,919.889,VALID,0,VALID,97.5873,VALID,0.107441,VALID,20.3643,VALID,2,VALID,0.409766,
2010-02-21, 00:41:04,VALID,919.844,VALID,0,VALID,97.595,VALID,0,VALID,20.3838,VALID,2,VALID,0.498437,
2010-02-21, 00:42:04,VALID,919.91,VALID,0,VALID,97.5797,VALID,0,VALID,20.3643,VALID,2,VALID,0.635547,
2010-02-21, 00:43:04,VALID,919.922,VALID,0,VALID,97.5797,VALID,0.107441,VALID,20.3448,VALID,299,VALID,0.633594,
2010-02-21, 00:44:04,VALID,919.929,VALID,0,VALID,97.6102,VALID,0,VALID,20.3464,VALID,216,VALID,0.783594,
2010-02-21, 00:45:04,VALID,919.907,VALID,0,VALID,97.5873,VALID,0,VALID,20.3448,VALID,216,VALID,0.773828,
2010-02-21, 00:46:04,VALID,919.925,VALID,0,VALID,97.5797,VALID,0,VALID,20.3253,VALID,216,VALID,0.975,
2010-02-21, 00:47:04,VALID,919.887,VALID,0,VALID,97.5645,VALID,0,VALID,20.3253,VALID,216,VALID,0.872266,
2010-02-21, 00:48:04,VALID,919.921,VALID,0,VALID,97.595,VALID,0,VALID,20.3464,VALID,225,VALID,1.28125,
2010-02-21, 00:49:04,VALID,919.919,VALID,0,VALID,97.5797,VALID,0,VALID,20.3464,VALID,178,VALID,0.834766,
2010-02-21, 00:50:04,VALID,919.947,VALID,0,VALID,97.595,VALID,0,VALID,20.3253,VALID,178,VALID,0.98125,
2010-02-21, 00:51:04,VALID,919.967,VALID,0,VALID,97.5797,VALID,0,VALID,20.3253,VALID,178,VALID,0.857813,
2010-02-21, 00:52:04,VALID,919.953,VALID,0,VALID,97.5873,VALID,0,VALID,20.3854,VALID,178,VALID,0.659375,
2010-02-21, 00:53:04,VALID,919.934,VALID,0,VALID,97.6026,VALID,0,VALID,20.3448,VALID,178,VALID,0.941406,
2010-02-21, 00:54:04,VALID,919.966,VALID,0,VALID,97.6102,VALID,0,VALID,20.3659,VALID,178,VALID,0.984375,
2010-02-21, 00:55:04,VALID,919.964,VALID,0,VALID,97.5721,VALID,0,VALID,20.3659,VALID,178,VALID,0.866406,
2010-02-21, 00:56:04,VALID,919.962,VALID,0,VALID,97.5797,VALID,0,VALID,20.3659,VALID,178,VALID,0.777734,
2010-02-21, 00:57:04,VALID,919.934,VALID,0,VALID,97.595,VALID,0,VALID,20.4049,VALID,178,VALID,1.35,
2010-02-21, 00:58:04,VALID,919.936,VALID,0,VALID,97.6178,VALID,0,VALID,20.4049,VALID,178,VALID,0.669922,
2010-02-21, 00:59:04,VALID,919.924,VALID,0,VALID,97.595,VALID,0,VALID,20.3838,VALID,188,VALID,1.45938,
2010-02-21, 01:00:04,VALID,919.913,VALID,0,VALID,97.6026,VALID,0,VALID,20.4049,VALID,174,VALID,0.412109,
2010-02-21, 01:01:04,VALID,919.864,VALID,0,VALID,97.6102,VALID,0.107441,VALID,20.4033,VALID,174,VALID,1.00391,
2010-02-21, 01:02:04,VALID,919.864,VALID,0,VALID,97.595,VALID,0,VALID,20.4049,VALID,174,VALID,0.537109,
2010-02-21, 01:03:04,VALID,919.8,VALID,0,VALID,97.6102,VALID,0,VALID,20.4244,VALID,174,VALID,1.17617,
2010-02-21, 01:04:04,VALID,919.83,VALID,0,VALID,97.5797,VALID,0,VALID,20.4244,VALID,174,VALID,0.451953,
2010-02-21, 01:05:04,VALID,919.804,VALID,0,VALID,97.6178,VALID,0,VALID,20.4244,VALID,174,VALID,0.824609,
2010-02-21, 01:06:04,VALID,919.778,VALID,0,VALID,97.5797,VALID,0,VALID,20.4049,VALID,174,VALID,0.328125,
2010-02-21, 01:07:04,VALID,919.767,VALID,0,VALID,97.5873,VALID,0,VALID,20.3854,VALID,174,VALID,0.610547,
2010-02-21, 01:08:04,VALID,919.759,VALID,0,VALID,97.595,VALID,0,VALID,20.3854,VALID,174,VALID,0.571875,
2010-02-21, 01:09:04,VALID,919.745,VALID,0,VALID,97.5873,VALID,0,VALID,20.3643,VALID,174,VALID,0.679688,
2010-02-21, 01:10:04,VALID,919.731,VALID,0,VALID,97.6026,VALID,0,VALID,20.3854,VALID,174,VALID,0.616016,
2010-02-21, 01:11:04,VALID,919.741,VALID,0,VALID,97.6026,VALID,0,VALID,20.3854,VALID,174,VALID,0.930469,
2010-02-21, 01:12:04,VALID,919.719,VALID,0,VALID,97.6102,VALID,0,VALID,20.3854,VALID,174,VALID,0.827734,
2010-02-21, 01:13:04,VALID,919.712,VALID,0,VALID,97.6102,VALID,0,VALID,20.3854,VALID,174,VALID,1.14922,
2010-02-21, 01:14:04,VALID,919.702,VALID,0,VALID,97.6102,VALID,0,VALID,20.3659,VALID,174,VALID,0.710156,
2010-02-21, 01:15:04,VALID,919.707,VALID,0,VALID,97.6102,VALID,0,VALID,20.3854,VALID,174,VALID,0.598828,
2010-02-21, 01:16:04,VALID,919.707,VALID,0,VALID,97.595,VALID,0,VALID,20.3854,VALID,174,VALID,0.320313,
2010-02-21, 01:17:04,VALID,919.659,VALID,0,VALID,97.5873,VALID,0,VALID,20.3643,VALID,174,VALID,0.556641,
2010-02-21, 01:18:04,VALID,919.613,VALID,0,VALID,97.595,VALID,0,VALID,20.3643,VALID,173,VALID,0.476563,
2010-02-21, 01:19:04,VALID,919.596,VALID,0,VALID,97.6026,VALID,0,VALID,20.3854,VALID,173,VALID,0.319922,
2010-02-21, 01:20:04,VALID,919.589,VALID,0,VALID,97.5873,VALID,0,VALID,20.3659,VALID,173,VALID,0.822266,
2010-02-21, 01:21:04,VALID,919.538,VALID,0,VALID,97.6026,VALID,0,VALID,20.3659,VALID,151,VALID,1.03008,
2010-02-21, 01:22:04,VALID,919.527,VALID,0,VALID,97.6026,VALID,0,VALID,20.3659,VALID,157,VALID,0.563281,
2010-02-21, 01:23:04,VALID,919.488,VALID,0,VALID,97.6102,VALID,0,VALID,20.3659,VALID,157,VALID,0.602344,
2010-02-21, 01:24:04,VALID,919.446,VALID,0,VALID,97.6026,VALID,0,VALID,20.3659,VALID,136,VALID,0.6125,
2010-02-21, 01:25:04,VALID,919.441,VALID,0,VALID,97.6255,VALID,0,VALID,20.3659,VALID,136,VALID,0.478125,
2010-02-21, 01:26:04,VALID,919.415,VALID,0,VALID,97.6102,VALID,0,VALID,20.3464,VALID,136,VALID,1.075,
2010-02-21, 01:27:04,VALID,919.386,VALID,0,VALID,97.6331,VALID,0,VALID,20.3464,VALID,136,VALID,0.364844,
2010-02-21, 01:28:04,VALID,919.387,VALID,0,VALID,97.6255,VALID,0,VALID,20.3269,VALID,136,VALID,0.452734,
2010-02-21, 01:29:04,VALID,919.327,VALID,0,VALID,97.6255,VALID,0,VALID,20.3659,VALID,136,VALID,0.721094,
2010-02-21, 01:30:04,VALID,919.351,VALID,0,VALID,97.6178,VALID,0,VALID,20.3659,VALID,135,VALID,0.637109,
2010-02-21, 01:31:04,VALID,919.31,VALID,0,VALID,97.6483,VALID,0,VALID,20.3058,VALID,101,VALID,0.809375,
2010-02-21, 01:32:04,VALID,919.293,VALID,0,VALID,97.5873,VALID,0,VALID,20.3269,VALID,101,VALID,0.477734,
2010-02-21, 01:33:04,VALID,919.253,VALID,0,VALID,97.6255,VALID,0,VALID,20.3269,VALID,100,VALID,0.301562,
2010-02-21, 01:34:04,VALID,919.255,VALID,0,VALID,97.6026,VALID,0,VALID,20.3269,VALID,101,VALID,0.498437,
2010-02-21, 01:35:04,VALID,919.218,VALID,0,VALID,97.6331,VALID,0,VALID,20.3058,VALID,100,VALID,0.910547,
2010-02-21, 01:36:04,VALID,919.22,VALID,0,VALID,97.6102,VALID,0,VALID,20.2863,VALID,101,VALID,0.544922,
2010-02-21, 01:37:04,VALID,919.192,VALID,0,VALID,97.6102,VALID,0,VALID,20.3058,VALID,101,VALID,0.737109,
2010-02-21, 01:38:04,VALID,919.197,VALID,0,VALID,97.6331,VALID,0,VALID,20.3269,VALID,101,VALID,0.779297,
2010-02-21, 01:39:04,VALID,919.201,VALID,0,VALID,97.6331,VALID,0,VALID,20.3253,VALID,101,VALID,0.206641,
2010-02-21, 01:40:04,VALID,919.146,VALID,0,VALID,97.6102,VALID,0,VALID,20.3464,VALID,101,VALID,0.102344,
2010-02-21, 01:41:04,VALID,919.153,VALID,0,VALID,97.6255,VALID,0,VALID,20.3464,VALID,116,VALID,0.6875,
2010-02-21, 01:42:04,VALID,919.171,VALID,0,VALID,97.6026,VALID,0,VALID,20.3269,VALID,153,VALID,1.06758,
2010-02-21, 01:43:04,VALID,919.159,VALID,0,VALID,97.595,VALID,0,VALID,20.3269,VALID,153,VALID,0.417188,
2010-02-21, 01:44:04,VALID,919.184,VALID,0,VALID,97.6178,VALID,0,VALID,20.3464,VALID,153,VALID,0.563672,
2010-02-21, 01:45:04,VALID,919.152,VALID,0,VALID,97.6026,VALID,0,VALID,20.3464,VALID,201,VALID,0.858203,
2010-02-21, 01:46:04,VALID,919.161,VALID,0,VALID,97.6255,VALID,0,VALID,20.3464,VALID,212,VALID,0.488672,
2010-02-21, 01:47:04,VALID,919.156,VALID,0,VALID,97.595,VALID,0,VALID,20.3074,VALID,212,VALID,1.02109,
2010-02-21, 01:48:04,VALID,919.166,VALID,0,VALID,97.6178,VALID,0,VALID,20.3269,VALID,212,VALID,0.299219,
2010-02-21, 01:49:04,VALID,919.114,VALID,0,VALID,97.6178,VALID,0,VALID,20.3464,VALID,212,VALID,0.634375,
2010-02-21, 01:50:04,VALID,919.11,VALID,0,VALID,97.6255,VALID,0.107441,VALID,20.3253,VALID,212,VALID,0.545313,
2010-02-21, 01:51:04,VALID,919.114,VALID,0,VALID,97.6255,VALID,0,VALID,20.3464,VALID,212,VALID,0.1,
2010-02-21, 01:52:04,VALID,919.099,VALID,0,VALID,97.6331,VALID,0,VALID,20.3659,VALID,212,VALID,0.392578,
2010-02-21, 01:53:04,VALID,919.054,VALID,0,VALID,97.6178,VALID,0.107441,VALID,20.3464,VALID,212,VALID,0.435937,
2010-02-21, 01:54:04,VALID,919.056,VALID,0,VALID,97.6178,VALID,0,VALID,20.3253,VALID,212,VALID,0.292188,
2010-02-21, 01:55:04,VALID,919.063,VALID,0,VALID,97.6331,VALID,0,VALID,20.3253,VALID,212,VALID,0.380078,
2010-02-21, 01:56:04,VALID,919.04,VALID,0,VALID,97.6255,VALID,0,VALID,20.3659,VALID,212,VALID,0.148828,
2010-02-21, 01:57:04,VALID,919.045,VALID,0,VALID,97.6026,VALID,0,VALID,20.3464,VALID,212,VALID,0.369141,
2010-02-21, 01:58:04,VALID,919.052,VALID,0,VALID,97.6178,VALID,0,VALID,20.3869,VALID,212,VALID,0.138672,
2010-02-21, 01:59:04,VALID,919.034,VALID,0,VALID,97.6102,VALID,0,VALID,20.3659,VALID,212,VALID,0.147656,
2010-02-21, 02:00:04,VALID,919.029,VALID,0,VALID,97.595,VALID,0,VALID,20.3659,VALID,212,VALID,0.395312,
2010-02-21, 02:01:04,VALID,919.013,VALID,0,VALID,97.6102,VALID,0,VALID,20.3464,VALID,212,VALID,0.519922,
2010-02-21, 02:02:04,VALID,919.007,VALID,0,VALID,97.6102,VALID,0,VALID,20.3074,VALID,212,VALID,0.835547,
2010-02-21, 02:03:04,VALID,918.99,VALID,0,VALID,97.6178,VALID,0,VALID,20.2879,VALID,212,VALID,0.414844,
2010-02-21, 02:04:04,VALID,918.997,VALID,0,VALID,97.6102,VALID,0,VALID,20.2879,VALID,212,VALID,0.309766,
2010-02-21, 02:05:04,VALID,919.009,VALID,0,VALID,97.6255,VALID,0,VALID,20.3074,VALID,212,VALID,0.322266,
2010-02-21, 02:06:04,VALID,918.98,VALID,0,VALID,97.6331,VALID,0,VALID,20.2879,VALID,212,VALID,0.637109,
2010-02-21, 02:07:04,VALID,918.982,VALID,0,VALID,97.6255,VALID,0,VALID,20.2879,VALID,212,VALID,0.918359,
2010-02-21, 02:08:04,VALID,919.01,VALID,0,VALID,97.6178,VALID,0,VALID,20.2489,VALID,212,VALID,1.06797,
2010-02-21, 02:09:04,VALID,918.984,VALID,0,VALID,97.6178,VALID,0,VALID,20.2489,VALID,212,VALID,0.719141,
2010-02-21, 02:10:04,VALID,919.018,VALID,0,VALID,97.6102,VALID,0,VALID,20.2293,VALID,212,VALID,0.625781,
2010-02-21, 02:11:04,VALID,919.05,VALID,0,VALID,97.6407,VALID,0,VALID,20.2293,VALID,212,VALID,0.00703125,
2010-02-21, 02:12:04,VALID,919.013,VALID,0,VALID,97.6255,VALID,0,VALID,20.2684,VALID,212,VALID,0,
2010-02-21, 02:13:04,VALID,918.997,VALID,0,VALID,97.6407,VALID,0,VALID,20.2684,VALID,212,VALID,0,
2010-02-21, 02:14:04,VALID,918.997,VALID,0,VALID,97.6331,VALID,0,VALID,20.2473,VALID,212,VALID,0,
2010-02-21, 02:15:04,VALID,918.989,VALID,0,VALID,97.6255,VALID,0,VALID,20.2473,VALID,212,VALID,0,
2010-02-21, 02:16:04,VALID,918.984,VALID,0,VALID,97.6255,VALID,0,VALID,20.2668,VALID,212,VALID,0.303516,
2010-02-21, 02:17:04,VALID,918.971,VALID,0,VALID,97.6255,VALID,0,VALID,20.2879,VALID,212,VALID,0.211719,
2010-02-21, 02:18:04,VALID,918.99,VALID,0,VALID,97.656,VALID,0,VALID,20.2668,VALID,212,VALID,0.133594,
2010-02-21, 02:19:04,VALID,918.983,VALID,0,VALID,97.6178,VALID,0,VALID,20.2879,VALID,212,VALID,0.171094,
2010-02-21, 02:20:04,VALID,918.959,VALID,0,VALID,97.6255,VALID,0,VALID,20.2668,VALID,212,VALID,0.0617188,
2010-02-21, 02:21:04,VALID,918.962,VALID,0,VALID,97.6331,VALID,0,VALID,20.2473,VALID,212,VALID,0.132813,
2010-02-21, 02:22:04,VALID,918.958,VALID,0,VALID,97.6178,VALID,0,VALID,20.2473,VALID,212,VALID,0,
2010-02-21, 02:23:04,VALID,918.96,VALID,0,VALID,97.6712,VALID,0,VALID,20.2489,VALID,212,VALID,0,
2010-02-21, 02:24:04,VALID,918.94,VALID,0,VALID,97.6331,VALID,0.107441,VALID,20.2684,VALID,212,VALID,0.415625,
2010-02-21, 02:25:04,VALID,918.938,VALID,0,VALID,97.6483,VALID,0,VALID,20.2879,VALID,212,VALID,0.778906,
2010-02-21, 02:26:04,VALID,918.965,VALID,0,VALID,97.6255,VALID,0.107441,VALID,20.2668,VALID,212,VALID,0.708203,
2010-02-21, 02:27:04,VALID,918.938,VALID,0,VALID,97.6255,VALID,0,VALID,20.2668,VALID,212,VALID,0.915625,
2010-02-21, 02:28:04,VALID,918.95,VALID,0,VALID,97.6331,VALID,0,VALID,20.2473,VALID,212,VALID,0.629687,
2010-02-21, 02:29:04,VALID,918.925,VALID,0,VALID,97.6331,VALID,0,VALID,20.2489,VALID,212,VALID,0.377734,
2010-02-21, 02:30:04,VALID,918.919,VALID,0,VALID,97.6407,VALID,0,VALID,20.2684,VALID,212,VALID,0.404297,
2010-02-21, 02:31:04,VALID,918.879,VALID,0,VALID,97.6331,VALID,0,VALID,20.2473,VALID,212,VALID,0.280469,
2010-02-21, 02:32:04,VALID,918.859,VALID,0,VALID,97.6331,VALID,0.107441,VALID,20.2293,VALID,212,VALID,0,
2010-02-21, 02:33:04,VALID,918.842,VALID,0,VALID,97.6483,VALID,0,VALID,20.2293,VALID,212,VALID,0.575391,
2010-02-21, 02:34:04,VALID,918.842,VALID,0,VALID,97.6178,VALID,0,VALID,20.2293,VALID,212,VALID,0.333594,
2010-02-21, 02:35:04,VALID,918.853,VALID,0,VALID,97.6331,VALID,0,VALID,20.2293,VALID,212,VALID,0.548047,
2010-02-21, 02:36:04,VALID,918.857,VALID,0,VALID,97.6483,VALID,0,VALID,20.2293,VALID,212,VALID,0.435547,
2010-02-21, 02:37:04,VALID,918.853,VALID,0,VALID,97.6483,VALID,0,VALID,20.2293,VALID,121,VALID,0.863672,
2010-02-21, 02:38:04,VALID,918.863,VALID,0,VALID,97.6407,VALID,0.107441,VALID,20.2293,VALID,121,VALID,0.633984,
2010-02-21, 02:39:04,VALID,918.882,VALID,0,VALID,97.6407,VALID,0,VALID,20.2098,VALID,121,VALID,0.796484,
2010-02-21, 02:40:04,VALID,918.908,VALID,0,VALID,97.6407,VALID,0,VALID,20.2098,VALID,121,VALID,0.808984,
2010-02-21, 02:41:04,VALID,918.913,VALID,0,VALID,97.6331,VALID,0,VALID,20.1888,VALID,121,VALID,0.857422,
2010-02-21, 02:42:04,VALID,918.93,VALID,0,VALID,97.6331,VALID,0,VALID,20.2098,VALID,121,VALID,0.962109,
2010-02-21, 02:43:04,VALID,918.949,VALID,0,VALID,97.656,VALID,0,VALID,20.2098,VALID,121,VALID,0.837891,
2010-02-21, 02:44:04,VALID,918.941,VALID,0,VALID,97.6331,VALID,0,VALID,20.2098,VALID,121,VALID,0.864844,
2010-02-21, 02:45:04,VALID,918.914,VALID,0,VALID,97.6483,VALID,0,VALID,20.2293,VALID,121,VALID,0.509766,
2010-02-21, 02:46:04,VALID,918.888,VALID,0,VALID,97.6483,VALID,0,VALID,20.2489,VALID,121,VALID,0.865234,
2010-02-21, 02:47:04,VALID,918.868,VALID,0,VALID,97.6407,VALID,0,VALID,20.2489,VALID,121,VALID,0.416797,
2010-02-21, 02:48:04,VALID,918.858,VALID,0,VALID,97.6636,VALID,0,VALID,20.2489,VALID,121,VALID,0.441016,
2010-02-21, 02:49:04,VALID,918.846,VALID,0,VALID,97.6483,VALID,0,VALID,20.2684,VALID,121,VALID,0.611719,
2010-02-21, 02:50:04,VALID,918.846,VALID,0,VALID,97.6407,VALID,0,VALID,20.2879,VALID,121,VALID,0.594141,
2010-02-21, 02:51:04,VALID,918.846,VALID,0,VALID,97.6483,VALID,0,VALID,20.2879,VALID,121,VALID,0.496484,
2010-02-21, 02:52:04,VALID,918.76,VALID,0,VALID,97.656,VALID,0,VALID,20.3074,VALID,121,VALID,0.573438,
2010-02-21, 02:53:04,VALID,918.742,VALID,0,VALID,97.6483,VALID,0,VALID,20.3058,VALID,121,VALID,0.498437,
2010-02-21, 02:54:04,VALID,918.726,VALID,0,VALID,97.6331,VALID,0,VALID,20.3074,VALID,122,VALID,0.579687,
2010-02-21, 02:55:04,VALID,918.71,VALID,0,VALID,97.6255,VALID,0,VALID,20.3074,VALID,122,VALID,0.514453,
2010-02-21, 02:56:04,VALID,918.687,VALID,0,VALID,97.6407,VALID,0,VALID,20.3074,VALID,122,VALID,0.719922,
2010-02-21, 02:57:04,VALID,918.673,VALID,0,VALID,97.6407,VALID,0,VALID,20.3269,VALID,133,VALID,0.704297,
2010-02-21, 02:58:04,VALID,918.67,VALID,0,VALID,97.6483,VALID,0,VALID,20.3269,VALID,164,VALID,0.865625,
2010-02-21, 02:59:04,VALID,918.672,VALID,0,VALID,97.6331,VALID,0,VALID,20.3253,VALID,174,VALID,0.841406,
2010-02-21, 03:00:04,VALID,918.657,VALID,0,VALID,97.6255,VALID,0,VALID,20.3464,VALID,174,VALID,0.995313,
2010-02-21, 03:01:04,VALID,918.617,VALID,0,VALID,97.6407,VALID,0,VALID,20.3269,VALID,136,VALID,1.2043,
2010-02-21, 03:02:04,VALID,918.63,VALID,0,VALID,97.6255,VALID,0,VALID,20.3058,VALID,91,VALID,0.816016,
2010-02-21, 03:03:04,VALID,918.565,VALID,0,VALID,97.6255,VALID,0,VALID,20.3269,VALID,132,VALID,1.25625,
2010-02-21, 03:04:04,VALID,918.536,VALID,0,VALID,97.6331,VALID,0,VALID,20.3464,VALID,132,VALID,1.12617,
2010-02-21, 03:05:04,VALID,918.518,VALID,0,VALID,97.6331,VALID,0,VALID,20.3464,VALID,107,VALID,0.976563,
2010-02-21, 03:06:04,VALID,918.515,VALID,0,VALID,97.6331,VALID,0,VALID,20.3269,VALID,108,VALID,0.733203,
2010-02-21, 03:07:04,VALID,918.472,VALID,0,VALID,97.6407,VALID,0.107441,VALID,20.3269,VALID,108,VALID,0.532031,
2010-02-21, 03:08:04,VALID,918.472,VALID,0,VALID,97.656,VALID,0,VALID,20.3269,VALID,107,VALID,0.935156,
2010-02-21, 03:09:04,VALID,918.499,VALID,0,VALID,97.6407,VALID,0,VALID,20.3269,VALID,108,VALID,0.659766,
2010-02-21, 03:10:04,VALID,918.458,VALID,0,VALID,97.6483,VALID,0.107441,VALID,20.3074,VALID,108,VALID,0.515234,
2010-02-21, 03:11:04,VALID,918.448,VALID,0,VALID,97.6483,VALID,0,VALID,20.2863,VALID,113,VALID,0.281641,
2010-02-21, 03:12:04,VALID,918.441,VALID,0,VALID,97.6331,VALID,0,VALID,20.3269,VALID,113,VALID,0.342578,
2010-02-21, 03:13:04,VALID,918.384,VALID,0,VALID,97.6331,VALID,0,VALID,20.3074,VALID,177,VALID,1.54336,
2010-02-21, 03:14:04,VALID,918.414,VALID,0,VALID,97.656,VALID,0,VALID,20.2879,VALID,193,VALID,0.823828,
2010-02-21, 03:15:04,VALID,918.372,VALID,0,VALID,97.6407,VALID,0,VALID,20.2684,VALID,171,VALID,1.03945,
2010-02-21, 03:16:04,VALID,918.328,VALID,0,VALID,97.6407,VALID,0,VALID,20.2879,VALID,161,VALID,0.971484,
2010-02-21, 03:17:04,VALID,918.318,VALID,0,VALID,97.6407,VALID,0,VALID,20.2684,VALID,172,VALID,0.558594,
2010-02-21, 03:18:04,VALID,918.283,VALID,0,VALID,97.6483,VALID,0,VALID,20.2684,VALID,121,VALID,0.889453,
2010-02-21, 03:19:04,VALID,918.206,VALID,0,VALID,97.656,VALID,0,VALID,20.2293,VALID,147,VALID,0.69375,
2010-02-21, 03:20:04,VALID,918.173,VALID,0,VALID,97.656,VALID,0,VALID,20.2293,VALID,123,VALID,1.18828,
2010-02-21, 03:21:04,VALID,918.12,VALID,0,VALID,97.6407,VALID,0,VALID,20.2293,VALID,144,VALID,1.42578,
2010-02-21, 03:22:04,VALID,918.072,VALID,0,VALID,97.6407,VALID,0,VALID,20.2098,VALID,132,VALID,1.26641,
2010-02-21, 03:23:04,VALID,918.053,VALID,0,VALID,97.6712,VALID,0,VALID,20.2293,VALID,123,VALID,1.05938,
2010-02-21, 03:24:04,VALID,917.993,VALID,0,VALID,97.6712,VALID,0.107441,VALID,20.1888,VALID,107,VALID,0.792969,
2010-02-21, 03:25:04,VALID,918.022,VALID,0,VALID,97.6483,VALID,0,VALID,20.2098,VALID,107,VALID,0.483984,
2010-02-21, 03:26:04,VALID,917.99,VALID,0,VALID,97.6483,VALID,0,VALID,20.2098,VALID,108,VALID,0.833984,
2010-02-21, 03:27:04,VALID,917.987,VALID,0,VALID,97.6407,VALID,0,VALID,20.1903,VALID,108,VALID,0.702344,
2010-02-21, 03:28:04,VALID,917.971,VALID,0,VALID,97.6331,VALID,0,VALID,20.1903,VALID,99,VALID,1.22617,
2010-02-21, 03:29:04,VALID,917.995,VALID,0,VALID,97.656,VALID,0,VALID,20.1903,VALID,64,VALID,0.778125,
2010-02-21, 03:30:04,VALID,917.99,VALID,0,VALID,97.6407,VALID,0,VALID,20.1903,VALID,64,VALID,0.647656,
2010-02-21, 03:31:04,VALID,918.033,VALID,0,VALID,97.6331,VALID,0,VALID,20.1513,VALID,64,VALID,0.655469,
2010-02-21, 03:32:04,VALID,918.045,VALID,0,VALID,97.6255,VALID,0,VALID,20.1318,VALID,64,VALID,0.945703,
2010-02-21, 03:33:04,VALID,918.059,VALID,0,VALID,97.6407,VALID,0,VALID,20.1123,VALID,64,VALID,1.04375,
2010-02-21, 03:34:04,VALID,918.08,VALID,0,VALID,97.6483,VALID,0,VALID,20.0928,VALID,64,VALID,0.759766,
2010-02-21, 03:35:04,VALID,918.085,VALID,0,VALID,97.6255,VALID,0,VALID,20.1123,VALID,64,VALID,0.828125,
2010-02-21, 03:36:04,VALID,918.094,VALID,0,VALID,97.6255,VALID,0,VALID,20.0928,VALID,64,VALID,0.828516,
2010-02-21, 03:37:04,VALID,918.096,VALID,0,VALID,97.6407,VALID,0,VALID,20.0733,VALID,64,VALID,0.794922,
2010-02-21, 03:38:04,VALID,918.064,VALID,0,VALID,97.6255,VALID,0,VALID,20.0538,VALID,64,VALID,1.15898,
2010-02-21, 03:39:04,VALID,918.063,VALID,0,VALID,97.6331,VALID,0,VALID,19.9953,VALID,64,VALID,0.822656,
2010-02-21, 03:40:04,VALID,918.024,VALID,0,VALID,97.6178,VALID,0,VALID,20.0343,VALID,63,VALID,0.875781,
2010-02-21, 03:41:04,VALID,918,VALID,0,VALID,97.656,VALID,0,VALID,19.9953,VALID,63,VALID,1.04062,
2010-02-21, 03:42:04,VALID,917.983,VALID,0,VALID,97.6255,VALID,0,VALID,19.9758,VALID,63,VALID,1.19492,
2010-02-21, 03:43:04,VALID,917.983,VALID,0,VALID,97.6407,VALID,0,VALID,19.9758,VALID,63,VALID,0.817578,
2010-02-21, 03:44:04,VALID,917.987,VALID,0,VALID,97.656,VALID,0,VALID,19.9563,VALID,62,VALID,0.867188,